#Datum;Uhrzeit;WR;Pac;DaySum;Status;WR;Pac;DaySum;Status;Pdc1;Udc;Temp;WR;Pac;DaySum;Status;Pdc1;Udc;Temp;WR;Pac;DaySum;Status;Pdc1;Udc;Temp;WR;Pac;DaySum;Status;Pdc1;Pdc2;Udc1;Udc2;Temp;WR;Pac;DaySum;Status;Pdc1;Pdc2;Udc1;Udc2;Temp;WR;Pac;DaySum;Status;Pdc1;Udc;Temp;WR;Pac;DaySum;Status;Pdc1;Udc;Temp;WR;Pac;DaySum;Status;Pdc1;Udc;Temp
05.02.19;23:55:00;1;216;13953;0;2;0;5756;0;0;0;0;3;0;3959;0;0;0;0;4;0;2537;0;0;0;0;5;0;165;0;0;0;0;0;0;6;0;6;0;0;0;0;0;0;7;0;6859;0;0;0;0;8;0;6791;0;0;0;0;9;0;3611;0;0;0;0
05.02.19;23:50:00;1;432;13921;0;2;0;5756;0;0;0;0;3;0;3959;0;0;0;0;4;0;2537;0;0;0;0;5;0;165;0;0;0;0;0;0;6;0;6;0;0;0;0;0;0;7;0;6859;0;0;0;0;8;0;6791;0;0;0;0;9;0;3611;0;0;0;0
05.02.19;23:45:00;1;431;13887;0;2;0;5756;0;0;0;0;3;0;3959;0;0;0;0;4;0;2537;0;0;0;0;5;0;165;0;0;0;0;0;0;6;0;6;0;0;0;0;0;0;7;0;6859;0;0;0;0;8;0;6791;0;0;0;0;9;0;3611;0;0;0;0
05.02.19;23:40:00;1;221;13841;0;2;0;5756;0;0;0;0;3;0;3959;0;0;0;0;4;0;2537;0;0;0;0;5;0;165;0;0;0;0;0;0;6;0;6;0;0;0;0;0;0;7;0;6859;0;0;0;0;8;0;6791;0;0;0;0;9;0;3611;0;0;0;0
05.02.19;23:35:00;1;456;13822;0;2;0;5756;0;0;0;0;3;0;3959;0;0;0;0;4;0;2537;0;0;0;0;5;0;165;0;0;0;0;0;0;6;0;6;0;0;0;0;0;0;7;0;6859;0;0;0;0;8;0;6791;0;0;0;0;9;0;3611;0;0;0;0
05.02.19;23:30:00;1;2798;13775;0;2;0;5756;0;0;0;0;3;0;3959;0;0;0;0;4;0;2537;0;0;0;0;5;0;165;0;0;0;0;0;0;6;0;6;0;0;0;0;0;0;7;0;6859;0;0;0;0;8;0;6791;0;0;0;0;9;0;3611;0;0;0;0
05.02.19;23:25:00;1;671;13549;0;2;0;5756;0;0;0;0;3;0;3959;0;0;0;0;4;0;2537;0;0;0;0;5;0;165;0;0;0;0;0;0;6;0;6;0;0;0;0;0;0;7;0;6859;0;0;0;0;8;0;6791;0;0;0;0;9;0;3611;0;0;0;0
05.02.19;23:20:00;1;214;13503;0;2;0;5756;0;0;0;0;3;0;3959;0;0;0;0;4;0;2537;0;0;0;0;5;0;165;0;0;0;0;0;0;6;0;6;0;0;0;0;0;0;7;0;6859;0;0;0;0;8;0;6791;0;0;0;0;9;0;3611;0;0;0;0
05.02.19;23:15:00;1;623;13485;0;2;0;5756;0;0;0;0;3;0;3959;0;0;0;0;4;0;2537;0;0;0;0;5;0;165;0;0;0;0;0;0;6;0;6;0;0;0;0;0;0;7;0;6859;0;0;0;0;8;0;6791;0;0;0;0;9;0;3611;0;0;0;0
05.02.19;23:10:00;1;216;13439;0;2;0;5756;0;0;0;0;3;0;3959;0;0;0;0;4;0;2537;0;0;0;0;5;0;165;0;0;0;0;0;0;6;0;6;0;0;0;0;0;0;7;0;6859;0;0;0;0;8;0;6791;0;0;0;0;9;0;3611;0;0;0;0
05.02.19;23:05:00;1;422;13421;0;2;0;5756;0;0;0;0;3;0;3959;0;0;0;0;4;0;2537;0;0;0;0;5;0;165;0;0;0;0;0;0;6;0;6;0;0;0;0;0;0;7;0;6859;0;0;0;0;8;0;6791;0;0;0;0;9;0;3611;0;0;0;0
05.02.19;23:00:00;1;218;13375;0;2;0;5756;0;0;0;0;3;0;3959;0;0;0;0;4;0;2537;0;0;0;0;5;0;165;0;0;0;0;0;0;6;0;6;0;0;0;0;0;0;7;0;6859;0;0;0;0;8;0;6791;0;0;0;0;9;0;3611;0;0;0;0
05.02.19;22:55:00;1;474;13357;0;2;0;5756;0;0;0;0;3;0;3959;0;0;0;0;4;0;2537;0;0;0;0;5;0;165;2;0;0;0;0;0;6;0;6;2;0;0;0;0;0;7;0;6859;0;0;0;0;8;0;6791;0;0;0;0;9;0;3611;0;0;0;0
05.02.19;22:50:00;1;270;13310;0;2;0;5756;0;0;0;0;3;0;3959;0;0;0;0;4;0;2537;0;0;0;0;5;0;165;2;0;0;0;0;0;6;0;6;2;0;0;0;0;0;7;0;6859;0;0;0;0;8;0;6791;0;0;0;0;9;0;3611;0;0;0;0
05.02.19;22:45:00;1;473;13277;0;2;0;5756;0;0;0;0;3;0;3959;0;0;0;0;4;0;2537;0;0;0;0;5;0;165;2;0;0;0;0;0;6;0;6;2;0;0;0;0;0;7;0;6859;0;0;0;0;8;0;6791;0;0;0;0;9;0;3611;0;0;0;0
05.02.19;22:40:00;1;464;13238;0;2;0;5756;0;0;0;0;3;0;3959;0;0;0;0;4;0;2537;0;0;0;0;5;0;165;2;0;0;0;0;0;6;0;6;2;0;0;0;0;0;7;0;6859;0;0;0;0;8;0;6791;0;0;0;0;9;0;3611;0;0;0;0
05.02.19;22:35:00;1;358;13186;0;2;0;5756;0;0;0;0;3;0;3959;0;0;0;0;4;0;2537;0;0;0;0;5;0;165;2;0;0;0;0;0;6;0;6;2;0;0;0;0;0;7;0;6859;0;0;0;0;8;0;6791;0;0;0;0;9;0;3611;0;0;0;0
05.02.19;22:30:00;1;626;13156;0;2;0;5756;0;0;0;0;3;0;3959;0;0;0;0;4;0;2537;0;0;0;0;5;0;165;2;0;0;0;0;0;6;0;6;2;0;0;0;0;0;7;0;6859;0;0;0;0;8;0;6791;0;0;0;0;9;0;3611;0;0;0;0
05.02.19;22:25:00;1;316;13100;0;2;0;5756;0;0;0;0;3;0;3959;0;0;0;0;4;0;2537;0;0;0;0;5;0;165;2;0;0;0;0;0;6;0;6;2;0;0;0;0;0;7;0;6859;0;0;0;0;8;0;6791;0;0;0;0;9;0;3611;0;0;0;0
05.02.19;22:20:00;1;722;13073;0;2;0;5756;0;0;0;0;3;0;3959;0;0;0;0;4;0;2537;0;0;0;0;5;0;165;2;0;0;0;0;0;6;0;6;2;0;0;0;0;0;7;0;6859;0;0;0;0;8;0;6791;0;0;0;0;9;0;3611;0;0;0;0
05.02.19;22:15:00;1;319;13020;0;2;0;5756;0;0;0;0;3;0;3959;0;0;0;0;4;0;2537;0;0;0;0;5;0;165;2;0;0;0;0;0;6;0;6;2;0;0;0;0;0;7;0;6859;0;0;0;0;8;0;6791;0;0;0;0;9;0;3611;0;0;0;0
05.02.19;22:10:00;1;694;12993;0;2;0;5756;0;0;0;0;3;0;3959;0;0;0;0;4;0;2537;0;0;0;0;5;0;165;2;0;0;0;0;0;6;0;6;2;0;0;0;0;0;7;0;6859;0;0;0;0;8;0;6791;0;0;0;0;9;0;3611;0;0;0;0
05.02.19;22:05:00;1;366;12938;0;2;0;5756;0;0;0;0;3;0;3959;0;0;0;0;4;0;2537;0;0;0;0;5;0;165;2;0;0;0;0;0;6;0;6;2;0;0;0;0;0;7;0;6859;0;0;0;0;8;0;6791;0;0;0;0;9;0;3611;0;0;0;0
05.02.19;22:00:00;1;466;12909;0;2;0;5756;0;0;0;0;3;0;3959;0;0;0;0;4;0;2537;0;0;0;0;5;0;165;2;0;0;0;0;0;6;0;6;2;0;0;0;0;0;7;0;6859;0;0;0;0;8;0;6791;0;0;0;0;9;0;3611;0;0;0;0
05.02.19;21:55:00;1;287;12859;0;2;0;5756;0;0;0;0;3;0;3959;0;0;0;0;4;0;2537;0;0;0;0;5;0;165;2;0;0;0;0;0;6;0;6;2;0;0;0;0;0;7;0;6859;0;0;0;0;8;0;6791;0;0;0;0;9;0;3611;0;0;0;0
05.02.19;21:50:00;1;583;12835;0;2;0;5756;0;0;0;0;3;0;3959;0;0;0;0;4;0;2537;0;0;0;0;5;0;165;2;0;0;0;0;0;6;0;6;2;0;0;0;0;0;7;0;6859;0;0;0;0;8;0;6791;0;0;0;0;9;0;3611;0;0;0;0
05.02.19;21:45:00;1;3078;12782;0;2;0;5756;0;0;0;0;3;0;3959;0;0;0;0;4;0;2537;0;0;0;0;5;0;165;2;0;0;0;0;0;6;0;6;2;0;0;0;0;0;7;0;6859;0;0;0;0;8;0;6791;0;0;0;0;9;0;3611;0;0;0;0
05.02.19;21:40:00;1;690;12541;0;2;0;5756;0;0;0;0;3;0;3959;0;0;0;0;4;0;2537;0;0;0;0;5;0;165;2;0;0;0;0;0;6;0;6;2;0;0;0;0;0;7;0;6859;0;0;0;0;8;0;6791;0;0;0;0;9;0;3611;0;0;0;0
05.02.19;21:35:00;1;610;12498;0;2;0;5756;0;0;0;0;3;0;3959;0;0;0;0;4;0;2537;0;0;0;0;5;0;165;2;0;0;0;0;0;6;0;6;2;0;0;0;0;0;7;0;6859;0;0;0;0;8;0;6791;0;0;0;0;9;0;3611;0;0;0;0
05.02.19;21:30:00;1;326;12439;0;2;0;5756;0;0;0;0;3;0;3959;0;0;0;0;4;0;2537;0;0;0;0;5;0;165;2;0;0;0;0;0;6;0;6;2;0;0;0;0;0;7;0;6859;0;0;0;0;8;0;6791;0;0;0;0;9;0;3611;0;0;0;0
05.02.19;21:25:00;1;457;12412;0;2;0;5756;0;0;0;0;3;0;3959;0;0;0;0;4;0;2537;0;0;0;0;5;0;165;2;0;0;0;0;0;6;0;6;2;0;0;0;0;0;7;0;6859;0;0;0;0;8;0;6791;0;0;0;0;9;0;3611;0;0;0;0
05.02.19;21:20:00;1;261;12363;0;2;0;5756;0;0;0;0;3;0;3959;0;0;0;0;4;0;2537;0;0;0;0;5;0;165;2;0;0;0;0;0;6;0;6;2;0;0;0;0;0;7;0;6859;0;0;0;0;8;0;6791;0;0;0;0;9;0;3611;0;0;0;0
05.02.19;21:15:00;1;673;12342;0;2;0;5756;0;0;0;0;3;0;3959;0;0;0;0;4;0;2537;0;0;0;0;5;0;165;2;0;0;0;0;0;6;0;6;2;0;0;0;0;0;7;0;6859;0;0;0;0;8;0;6791;0;0;0;0;9;0;3611;0;0;0;0
05.02.19;21:10:00;1;296;12293;0;2;0;5756;0;0;0;0;3;0;3959;0;0;0;0;4;0;2537;0;0;0;0;5;0;165;2;0;0;0;0;0;6;0;6;2;0;0;0;0;0;7;0;6859;0;0;0;0;8;0;6791;0;0;0;0;9;0;3611;0;0;0;0
05.02.19;21:05:00;1;631;12270;0;2;0;5756;0;0;0;0;3;0;3959;0;0;0;0;4;0;2537;0;0;0;0;5;0;165;2;0;0;0;0;0;6;0;6;2;0;0;0;0;0;7;0;6859;0;0;0;0;8;0;6791;0;0;0;0;9;0;3611;0;0;0;0
05.02.19;21:00:00;1;208;12225;0;2;0;5756;0;0;0;0;3;0;3959;0;0;0;0;4;0;2537;0;0;0;0;5;0;165;2;0;0;0;0;0;6;0;6;2;0;0;0;0;0;7;0;6859;0;0;0;0;8;0;6791;0;0;0;0;9;0;3611;0;0;0;0
05.02.19;20:55:00;1;632;12208;0;2;0;5756;0;0;0;0;3;0;3959;0;0;0;0;4;0;2537;0;0;0;0;5;0;165;2;0;0;0;0;0;6;0;6;2;0;0;0;0;0;7;0;6859;0;0;0;0;8;0;6791;0;0;0;0;9;0;3611;0;0;0;0
05.02.19;20:50:00;1;296;12164;0;2;0;5756;0;0;0;0;3;0;3959;0;0;0;0;4;0;2537;0;0;0;0;5;0;165;2;0;0;0;0;0;6;0;6;2;0;0;0;0;0;7;0;6859;0;0;0;0;8;0;6791;0;0;0;0;9;0;3611;0;0;0;0
05.02.19;20:45:00;1;514;12131;0;2;0;5756;0;0;0;0;3;0;3959;0;0;0;0;4;0;2537;0;0;0;0;5;0;165;2;0;0;0;0;0;6;0;6;2;0;0;0;0;0;7;0;6859;0;0;0;0;8;0;6791;0;0;0;0;9;0;3611;0;0;0;0
05.02.19;20:40:00;1;593;12084;0;2;0;5756;0;0;0;0;3;0;3959;0;0;0;0;4;0;2537;0;0;0;0;5;0;165;2;0;0;0;0;0;6;0;6;2;0;0;0;0;0;7;0;6859;0;0;0;0;8;0;6791;0;0;0;0;9;0;3611;0;0;0;0
05.02.19;20:35:00;1;677;12023;0;2;0;5756;0;0;0;0;3;0;3959;0;0;0;0;4;0;2537;0;0;0;0;5;0;165;2;0;0;0;0;0;6;0;6;2;0;0;0;0;0;7;0;6859;0;0;0;0;8;0;6791;0;0;0;0;9;0;3611;0;0;0;0
05.02.19;20:30:00;1;691;11981;0;2;0;5756;0;0;0;0;3;0;3959;0;0;0;0;4;0;2537;0;0;0;0;5;0;165;2;0;0;0;0;0;6;0;6;2;0;0;0;0;0;7;0;6859;0;0;0;0;8;0;6791;0;0;0;0;9;0;3611;0;0;0;0
05.02.19;20:25:00;1;487;11914;0;2;0;5756;0;0;0;0;3;0;3959;0;0;0;0;4;0;2537;0;0;0;0;5;0;165;2;0;0;0;0;0;6;0;6;2;0;0;0;0;0;7;0;6859;0;0;0;0;8;0;6791;0;0;0;0;9;0;3611;0;0;0;0
05.02.19;20:20:00;1;847;11874;0;2;0;5756;0;0;0;0;3;0;3959;0;0;0;0;4;0;2537;0;0;0;0;5;0;165;2;0;0;0;0;0;6;0;6;2;0;0;0;0;0;7;0;6859;0;0;0;0;8;0;6791;0;0;0;0;9;0;3611;0;0;0;0
05.02.19;20:15:00;1;485;11808;0;2;0;5756;0;0;0;0;3;0;3959;0;0;0;0;4;0;2537;0;0;0;0;5;0;165;2;0;0;0;0;0;6;0;6;2;0;0;0;0;0;7;0;6859;0;0;0;0;8;0;6791;0;0;0;0;9;0;3611;0;0;0;0
05.02.19;20:10:00;1;1219;11767;0;2;0;5756;0;0;0;0;3;0;3959;0;0;0;0;4;0;2537;0;0;0;0;5;0;165;2;0;0;0;0;0;6;0;6;2;0;0;0;0;0;7;0;6859;0;0;0;0;8;0;6791;0;0;0;0;9;0;3611;0;0;0;0
05.02.19;20:05:00;1;484;11700;0;2;0;5756;0;0;0;0;3;0;3959;0;0;0;0;4;0;2537;0;0;0;0;5;0;165;2;0;0;0;0;0;6;0;6;2;0;0;0;0;0;7;0;6859;0;0;0;0;8;0;6791;0;0;0;0;9;0;3611;0;0;0;0
05.02.19;20:00:00;1;894;11659;0;2;0;5756;0;0;0;0;3;0;3959;0;0;0;0;4;0;2537;0;0;0;0;5;0;165;2;0;0;0;0;0;6;0;6;2;0;0;0;0;0;7;0;6859;0;0;0;0;8;0;6791;0;0;0;0;9;0;3611;0;0;0;0
05.02.19;19:55:00;1;476;11593;0;2;0;5756;0;0;0;0;3;0;3959;0;0;0;0;4;0;2537;0;0;0;0;5;0;165;2;0;0;0;0;0;6;0;6;2;0;0;0;0;0;7;0;6859;0;0;0;0;8;0;6791;0;0;0;0;9;0;3611;0;0;0;0
05.02.19;19:50:00;1;972;11553;0;2;0;5756;0;0;0;0;3;0;3959;0;0;0;0;4;0;2537;0;0;0;0;5;0;165;2;0;0;0;0;0;6;0;6;2;0;0;0;0;0;7;0;6859;0;0;0;0;8;0;6791;0;0;0;0;9;0;3611;0;0;0;0
05.02.19;19:45:00;1;446;11491;0;2;0;5756;0;0;0;0;3;0;3959;0;0;0;0;4;0;2537;0;0;0;0;5;0;165;2;0;0;0;0;0;6;0;6;2;0;0;0;0;0;7;0;6859;0;0;0;0;8;0;6791;0;0;0;0;9;0;3611;0;0;0;0
05.02.19;19:40:00;1;655;11453;0;2;0;5756;0;0;0;0;3;0;3959;0;0;0;0;4;0;2537;0;0;0;0;5;0;165;2;0;0;0;0;0;6;0;6;2;0;0;0;0;0;7;0;6859;0;0;0;0;8;0;6791;0;0;0;0;9;0;3611;0;0;0;0
05.02.19;19:35:00;1;464;11386;0;2;0;5756;0;0;0;0;3;0;3959;0;0;0;0;4;0;2537;0;0;0;0;5;0;165;2;0;0;0;0;0;6;0;6;2;0;0;0;0;0;7;0;6859;0;0;0;0;8;0;6791;0;0;0;0;9;0;3611;0;0;0;0
05.02.19;19:30:00;1;3034;11346;0;2;0;5756;0;0;0;0;3;0;3959;0;0;0;0;4;0;2537;0;0;0;0;5;0;165;2;0;0;0;0;0;6;0;6;2;0;0;0;0;0;7;0;6859;0;0;0;0;8;0;6791;0;0;0;0;9;0;3611;0;0;0;0
05.02.19;19:25:00;1;1019;11079;0;2;0;5756;0;0;0;0;3;0;3959;0;0;0;0;4;0;2537;0;0;0;0;5;0;165;2;0;0;0;0;0;6;0;6;2;0;0;0;0;0;7;0;6859;0;0;0;0;8;0;6791;0;0;0;0;9;0;3611;0;0;0;0
05.02.19;19:20:00;1;708;11013;0;2;0;5756;0;0;0;0;3;0;3959;0;0;0;0;4;0;2537;0;0;0;0;5;0;165;2;0;0;0;0;0;6;0;6;2;0;0;0;0;0;7;0;6859;0;0;0;0;8;0;6791;0;0;0;0;9;0;3611;0;0;0;0
05.02.19;19:15:00;1;625;10960;0;2;0;5756;0;0;0;0;3;0;3959;0;0;0;0;4;0;2537;0;0;0;0;5;0;165;2;0;0;0;0;0;6;0;6;2;0;0;0;0;0;7;0;6859;0;0;0;0;8;0;6791;0;0;0;0;9;0;3611;0;0;0;0
05.02.19;19:10:00;1;629;10899;0;2;0;5756;0;0;0;0;3;0;3959;0;0;0;0;4;0;2537;0;0;0;0;5;0;165;2;0;0;0;0;0;6;0;6;2;0;0;0;0;0;7;0;6859;0;0;0;0;8;0;6791;0;0;0;0;9;0;3611;0;0;0;0
05.02.19;19:05:00;1;420;10862;0;2;0;5756;0;0;0;0;3;0;3959;0;0;0;0;4;0;2537;0;0;0;0;5;0;165;2;0;0;0;0;0;6;0;6;2;0;0;0;0;0;7;0;6859;0;0;0;0;8;0;6791;0;0;0;0;9;0;3611;0;0;0;0
05.02.19;19:00:00;1;419;10800;0;2;0;5756;0;0;0;0;3;0;3959;0;0;0;0;4;0;2537;0;0;0;0;5;0;165;2;0;0;0;0;0;6;0;6;2;0;0;0;0;0;7;0;6859;0;0;0;0;8;0;6791;0;0;0;0;9;0;3611;0;0;0;0
05.02.19;18:55:00;1;621;10765;0;2;0;5756;0;0;0;0;3;0;3959;0;0;0;0;4;0;2537;0;0;0;0;5;0;165;2;0;0;0;0;0;6;0;6;2;0;0;0;0;0;7;0;6859;0;0;0;0;8;0;6791;0;0;0;0;9;0;3611;0;0;0;0
05.02.19;18:50:00;1;415;10703;0;2;0;5756;0;0;0;0;3;0;3959;0;0;0;0;4;0;2537;0;0;0;0;5;0;165;2;0;0;0;0;0;6;0;6;2;0;0;0;0;0;7;0;6859;0;0;0;0;8;0;6791;0;0;0;0;9;0;3611;0;0;0;0
05.02.19;18:45:00;1;850;10668;0;2;0;5756;0;0;0;0;3;0;3959;0;0;0;0;4;0;2537;0;0;0;0;5;0;165;2;0;0;0;0;0;6;0;6;2;0;0;0;0;0;7;0;6859;0;0;0;0;8;0;6791;0;0;0;0;9;0;3611;0;0;0;0
05.02.19;18:40:00;1;467;10603;0;2;0;5756;0;0;0;0;3;0;3959;0;0;0;0;4;0;2537;0;0;0;0;5;0;165;2;0;0;0;0;0;6;0;6;2;0;0;0;0;0;7;0;6859;0;0;0;0;8;0;6791;0;0;0;0;9;0;3611;0;0;0;0
05.02.19;18:35:00;1;1280;10564;0;2;0;5756;0;0;0;0;3;0;3959;0;0;0;0;4;0;2537;0;0;0;0;5;0;165;2;0;0;0;0;0;6;0;6;2;0;0;0;0;0;7;0;6859;0;0;0;0;8;0;6791;0;0;0;0;9;0;3611;0;0;0;0
05.02.19;18:30:00;1;431;10498;0;2;0;5756;0;0;0;0;3;0;3959;0;0;0;0;4;0;2537;0;0;0;0;5;0;165;2;0;0;0;0;0;6;0;6;2;0;0;0;0;0;7;0;6859;0;0;0;0;8;0;6791;0;0;0;0;9;0;3611;0;0;0;0
05.02.19;18:25:00;1;1359;10463;0;2;0;5756;0;0;0;0;3;0;3959;0;0;0;0;4;0;2537;0;0;0;0;5;0;165;2;0;0;0;0;0;6;0;6;2;0;0;0;0;0;7;0;6859;0;0;0;0;8;0;6791;0;0;0;0;9;0;3611;0;0;0;0
05.02.19;18:20:00;1;2379;10319;0;2;0;5756;0;0;0;0;3;0;3959;0;0;0;0;4;0;2537;0;0;0;0;5;0;165;2;0;0;0;0;0;6;0;6;2;0;0;0;0;0;7;0;6859;0;0;0;0;8;0;6791;0;0;0;0;9;0;3611;0;0;0;0
05.02.19;18:15:00;1;2571;10114;0;2;0;5756;0;0;0;0;3;0;3959;0;0;0;0;4;0;2537;0;0;0;0;5;0;165;2;0;0;0;0;0;6;0;6;2;0;0;0;0;0;7;0;6859;0;0;0;0;8;0;6791;0;0;0;0;9;0;3611;0;0;0;0
05.02.19;18:10:00;1;1806;9895;0;2;0;5756;0;0;0;0;3;0;3959;0;0;0;0;4;0;2537;0;0;0;0;5;0;165;2;0;0;0;0;0;6;0;6;2;0;0;0;0;0;7;0;6859;0;0;0;0;8;0;6791;0;0;0;0;9;0;3611;0;0;0;0
05.02.19;18:05:00;1;1582;9737;0;2;0;5756;0;0;0;0;3;0;3959;0;0;0;0;4;0;2537;0;0;0;0;5;0;165;2;0;0;0;0;0;6;0;6;2;0;0;0;0;0;7;0;6859;0;0;0;0;8;0;6791;0;0;0;0;9;0;3611;0;0;0;0
05.02.19;18:00:00;1;1132;9590;0;2;0;5756;0;0;0;0;3;0;3959;0;0;0;0;4;0;2537;0;0;0;0;5;0;165;2;0;0;0;0;0;6;0;6;2;0;0;0;0;0;7;0;6859;0;0;0;0;8;0;6791;0;0;0;0;9;0;3611;0;0;0;0
05.02.19;17:55:00;1;536;9520;0;2;0;5756;0;0;0;0;3;0;3959;0;0;0;0;4;0;2537;0;0;0;0;5;0;165;2;0;0;0;0;0;6;0;6;2;0;0;0;0;0;7;0;6859;0;0;0;0;8;0;6791;0;0;0;0;9;0;3611;0;0;0;0
05.02.19;17:50:00;1;2167;9475;0;2;0;5756;0;0;0;0;3;0;3959;0;0;0;0;4;0;2537;0;0;0;0;5;0;165;2;0;0;0;0;0;6;0;6;2;0;0;0;0;0;7;0;6859;0;0;0;0;8;0;6791;0;0;0;0;9;0;3611;0;0;0;0
05.02.19;17:45:00;1;2155;9313;0;2;0;5756;0;0;0;0;3;0;3959;0;0;0;0;4;0;2537;0;0;0;0;5;0;165;2;0;0;0;0;0;6;0;6;2;0;0;0;0;0;7;0;6859;0;0;0;0;8;0;6791;0;0;0;0;9;0;3611;0;0;0;0
05.02.19;17:40:00;1;2095;9169;0;2;0;5756;0;0;0;0;3;0;3959;0;0;0;0;4;0;2537;0;0;0;0;5;0;165;2;0;0;0;0;0;6;0;6;2;0;0;0;0;0;7;0;6859;0;0;0;0;8;0;6791;0;0;0;0;9;0;3611;0;0;0;0
05.02.19;17:35:00;1;2540;8990;0;2;0;5756;0;0;0;0;3;0;3959;0;0;0;0;4;0;2537;0;0;0;0;5;0;165;2;0;0;0;0;0;6;0;6;2;0;0;0;0;0;7;0;6859;0;0;0;0;8;0;6791;0;0;0;0;9;0;3611;0;0;0;0
05.02.19;17:30:00;1;2733;8830;0;2;0;5756;0;0;190;5;3;0;3959;6;0;289;11;4;0;2537;0;0;0;0;5;0;165;2;0;0;0;0;0;6;0;6;2;0;0;0;0;0;7;0;6859;0;0;0;0;8;0;6791;0;0;0;0;9;0;3611;0;0;0;0
05.02.19;17:25:00;1;2663;8632;0;2;0;5756;6;0;302;7;3;0;3959;6;0;352;11;4;0;2537;0;0;33;1;5;0;165;2;0;0;0;0;0;6;0;6;2;0;0;0;0;0;7;0;6859;0;0;0;0;8;0;6791;0;0;0;0;9;0;3611;0;0;0;0
05.02.19;17:20:00;1;1375;8406;0;2;0;5756;6;0;345;7;3;0;3959;6;0;420;11;4;0;2537;2;0;94;2;5;0;165;2;0;0;0;0;0;6;0;6;2;0;0;0;0;0;7;0;6859;0;0;0;0;8;0;6791;0;0;0;0;9;0;3611;0;0;42;0
05.02.19;17:15:00;1;1067;8309;0;2;0;5756;6;0;373;7;3;0;3959;6;0;470;11;4;0;2537;1;0;127;3;5;0;165;2;0;0;0;0;0;6;0;6;2;0;0;0;0;0;7;0;6859;0;0;219;6;8;0;6791;0;0;224;6;9;0;3611;6;0;293;5
05.02.19;17:10:00;1;508;8242;0;2;0;5756;6;0;393;8;3;1;3959;4;4;460;11;4;0;2537;1;0;161;3;5;0;165;2;0;0;0;0;0;6;0;6;2;0;0;0;0;0;7;0;6859;6;0;283;6;8;0;6791;6;0;344;8;9;0;3611;6;0;364;6
05.02.19;17:05:00;1;790;8200;0;2;0;5756;6;0;408;8;3;2;3959;6;3;497;12;4;0;2537;1;0;191;3;5;0;165;2;0;0;0;0;0;6;0;6;2;0;0;0;0;0;7;0;6859;6;0;399;8;8;0;6791;6;0;407;8;9;0;3611;6;0;437;6
05.02.19;17:00:00;1;495;8131;0;2;2;5756;6;4;412;8;3;4;3959;6;9;494;12;4;0;2537;1;0;216;3;5;0;165;2;0;0;0;0;0;6;0;6;1;0;0;0;0;0;7;0;6859;6;0;438;9;8;0;6791;6;0;443;8;9;1;3611;3;1;461;6
05.02.19;16:55:00;1;782;8080;0;2;0;5756;6;0;430;8;3;0;3958;6;6;525;12;4;0;2537;3;0;207;4;5;0;165;2;0;0;0;0;0;6;0;6;1;0;0;0;0;0;7;0;6859;6;0;463;9;8;0;6791;6;0;472;8;9;2;3611;6;2;508;6
05.02.19;16:50:00;1;523;8012;0;2;8;5756;3;16;412;8;3;1;3958;6;6;539;12;4;0;2537;3;0;210;4;5;0;165;2;0;0;0;0;0;6;0;6;0;0;0;0;0;2;7;1;6859;3;6;458;9;8;3;6791;3;8;460;9;9;2;3610;6;3;528;6
05.02.19;16:45:00;1;690;7968;0;2;8;5755;6;14;426;8;3;3;3958;6;10;543;12;4;0;2537;3;0;228;4;5;0;165;2;0;0;0;0;0;6;0;6;1;0;1;14;13;8;7;9;6859;6;17;458;9;8;7;6790;6;18;462;9;9;1;3610;6;6;544;6
05.02.19;16:40:00;1;1599;7865;0;2;54;5755;4;81;356;8;3;11;3958;4;20;527;12;4;0;2537;3;0;199;4;5;0;165;2;0;0;0;0;0;6;0;6;2;4;6;88;85;9;7;18;6859;6;34;436;10;8;20;6790;6;34;446;9;9;4;3610;6;5;556;6
05.02.19;16:35:00;1;2596;7744;0;2;79;5750;4;104;354;8;3;10;3957;3;16;551;12;4;9;2537;3;9;199;4;5;0;165;2;0;2;15;14;1;6;0;6;2;3;6;90;87;9;7;57;6857;4;85;406;10;8;48;6788;4;84;426;9;9;0;3610;6;0;592;7
05.02.19;16:30:00;1;2518;7532;0;2;99;5743;4;127;365;8;3;62;3956;4;97;440;12;4;16;2536;3;16;198;4;5;0;165;1;0;0;26;24;3;6;0;6;2;4;6;115;112;9;7;88;6852;4;113;425;10;8;82;6784;4;108;373;9;9;16;3610;4;21;547;7
05.02.19;16:25:00;1;2549;7317;0;2;115;5735;4;145;359;8;3;73;3951;4;108;468;12;4;36;2535;3;37;198;4;5;0;165;1;2;4;130;128;8;6;0;6;2;4;6;179;176;9;7;95;6845;4;132;457;10;8;99;6777;4;127;380;9;9;12;3608;6;15;574;7
05.02.19;16:20:00;1;1810;7127;0;2;134;5726;4;162;359;8;3;86;3945;4;123;496;12;4;43;2532;3;45;198;4;5;0;165;1;0;1;223;221;7;6;0;6;1;4;7;181;230;9;7;116;6837;4;148;449;10;8;121;6769;4;150;431;10;9;24;3607;6;32;563;7
05.02.19;16:15:00;1;293;6983;0;2;154;5715;4;181;353;8;3;97;3938;4;138;519;12;4;54;2528;3;56;198;4;5;0;165;1;1;4;311;308;11;6;0;6;23;3;8;180;444;9;7;134;6828;4;170;451;10;8;135;6759;4;173;450;10;9;75;3605;4;101;490;7
05.02.19;16:10:00;1;516;6956;0;2;184;5702;4;215;354;8;3;123;3929;4;157;477;12;4;67;2524;3;70;198;4;5;0;165;26;0;0;381;379;11;6;0;6;23;2;8;181;538;9;7;176;6817;4;213;429;10;8;176;6747;4;219;456;10;9;95;3599;4;126;514;7
05.02.19;16:05:00;1;270;6906;0;2;204;5686;4;235;354;8;3;139;3919;4;176;502;12;4;74;2518;3;77;198;4;5;0;165;23;0;0;397;394;11;6;0;6;23;2;8;181;559;9;7;195;6802;4;229;417;10;8;208;6733;4;242;458;10;9;107;3591;4;136;495;8
05.02.19;16:00:00;1;992;6883;0;2;230;5669;4;261;355;8;3;156;3908;4;196;519;12;4;89;2512;3;92;200;4;5;0;165;26;0;1;415;461;12;6;0;6;23;1;6;181;570;9;7;243;6786;4;264;443;10;8;233;6716;4;268;465;10;9;127;3582;4;154;527;8
05.02.19;15:55:00;1;272;6834;0;2;264;5650;4;297;354;8;3;180;3895;4;219;500;12;4;102;2505;3;106;200;4;5;0;165;23;0;1;423;477;12;6;0;6;23;2;8;181;581;9;7;267;6765;4;319;471;10;8;280;6696;4;320;472;10;9;150;3571;4;180;543;8
05.02.19;15:50:00;1;765;6811;0;2;292;5628;4;324;361;8;3;200;3880;4;242;516;12;4;119;2496;5;124;200;4;5;0;165;23;0;1;426;466;12;6;0;6;23;2;7;181;588;9;7;308;6743;4;354;469;10;8;321;6673;4;357;473;10;9;173;3559;4;201;545;8
05.02.19;15:45:00;1;317;6759;0;2;307;5604;4;339;358;8;3;211;3863;4;251;528;12;4;130;2486;5;135;199;4;5;0;165;23;0;0;430;481;12;6;0;6;23;2;8;181;590;9;7;324;6718;4;365;498;10;8;334;6646;4;375;485;10;9;183;3544;4;212;543;8
05.02.19;15:40:00;1;745;6732;0;2;346;5578;4;380;359;9;3;239;3845;4;280;524;12;4;149;2475;5;156;201;4;5;0;165;23;0;2;433;468;12;6;0;6;23;2;8;182;597;9;7;380;6690;4;413;496;10;8;385;6618;4;421;492;10;9;208;3529;4;239;546;8
05.02.19;15:35:00;1;221;6684;0;2;385;5549;4;421;364;9;3;265;3825;4;312;534;12;4;168;2463;5;175;200;5;5;0;165;26;0;3;438;467;12;6;0;6;23;2;8;269;520;9;7;432;6659;4;464;493;10;8;427;6586;4;465;493;10;9;232;3511;4;264;533;8
05.02.19;15:30:00;1;452;6665;0;2;402;5517;4;438;354;9;3;279;3803;4;325;530;12;4;169;2449;5;176;202;5;5;0;165;26;0;4;438;484;12;6;0;6;23;1;7;182;604;9;7;463;6623;4;497;492;11;8;461;6550;4;497;482;10;9;246;3492;4;282;529;8
05.02.19;15:25:00;1;211;6619;0;2;409;5484;4;445;359;9;3;282;3780;4;328;542;12;4;177;2435;5;184;200;5;5;0;165;26;0;4;441;488;12;6;0;6;23;2;9;356;438;9;7;466;6584;4;507;477;11;8;459;6512;4;509;504;10;9;257;3472;4;291;545;8
05.02.19;15:20:00;1;930;6602;0;2;424;5449;4;462;358;9;3;294;3756;4;339;532;13;4;183;2420;5;191;200;5;5;8;165;26;1;3;430;583;12;6;0;6;23;2;7;182;607;9;7;496;6546;4;534;487;11;8;495;6474;4;542;493;10;9;267;3451;4;304;533;9
05.02.19;15:15:00;1;210;6555;0;2;457;5414;4;468;362;9;3;298;3732;4;345;539;13;4;191;2405;5;199;200;5;5;0;165;26;0;2;446;622;12;6;0;6;23;2;8;182;608;9;7;501;6504;4;538;464;11;8;509;6432;4;549;493;10;9;270;3428;4;310;538;9
05.02.19;15:10:00;1;458;6537;0;2;456;5375;4;494;359;9;3;316;3707;4;365;538;13;4;198;2389;5;207;200;5;5;6;164;4;1;5;434;555;12;6;0;6;23;3;9;253;610;9;7;528;6462;4;568;491;11;8;525;6390;4;569;470;10;9;286;3405;4;322;538;9
05.02.19;15:05:00;1;209;6492;0;2;482;5337;4;523;361;9;3;335;3681;4;384;528;13;4;216;2372;5;224;200;5;5;7;164;1;1;3;435;652;12;6;0;6;23;2;9;271;529;9;7;550;6418;4;597;496;11;8;554;6346;4;606;485;10;9;297;3382;4;341;551;9
05.02.19;15:00:00;1;456;6473;0;2;505;5297;4;545;361;9;3;350;3653;4;402;531;13;4;227;2354;5;237;201;5;5;7;163;1;2;8;439;668;12;6;0;6;23;2;6;224;614;9;7;580;6372;4;623;495;11;8;580;6300;4;629;481;10;9;312;3357;4;356;543;9
05.02.19;14:55:00;1;212;6430;0;2;531;5255;4;572;364;9;3;369;3624;4;420;525;13;4;238;2335;5;248;199;5;5;9;163;1;2;5;440;668;12;6;0;6;23;2;8;182;616;9;7;614;6324;4;660;491;11;8;619;6252;4;663;487;11;9;342;3331;4;372;556;9
05.02.19;14:50:00;1;879;6413;0;2;557;5210;4;598;365;9;3;387;3593;4;436;511;13;4;248;2315;5;258;200;5;5;11;162;1;3;4;435;661;12;6;0;6;23;2;9;182;617;9;7;648;6273;4;691;499;11;8;647;6200;4;698;500;11;9;355;3302;4;392;555;9
05.02.19;14:45:00;1;254;6363;0;2;610;5164;4;653;363;9;3;425;3561;4;478;542;13;4;276;2295;5;287;201;5;5;15;161;1;2;6;436;667;12;6;0;6;23;2;8;182;621;9;7;724;6220;4;762;499;11;8;721;6147;4;772;493;11;9;387;3273;4;430;548;9
05.02.19;14:40:00;1;492;6333;0;2;600;5113;4;641;358;9;3;419;3525;4;470;530;13;4;270;2272;5;281;200;5;5;7;161;1;2;2;442;685;12;6;0;6;23;3;11;182;621;10;7;714;6159;4;755;503;11;8;716;6087;4;769;496;11;9;388;3241;4;430;545;9
05.02.19;14:35:00;1;212;6293;0;2;635;5063;4;677;356;10;3;444;3491;4;497;534;13;4;288;2249;5;300;200;5;5;9;160;26;3;4;442;681;12;6;0;6;23;2;8;373;622;10;7;733;6100;4;777;507;11;8;741;6027;4;794;500;11;9;395;3208;4;442;546;9
05.02.19;14:30:00;1;455;6267;0;2;663;5011;4;707;361;10;3;464;3454;4;521;546;13;4;299;2226;5;311;200;5;5;13;159;26;3;7;442;674;12;6;0;6;23;2;6;410;623;10;7;776;6039;4;826;503;11;8;779;5965;4;837;500;11;9;421;3176;4;464;549;9
05.02.19;14:25:00;1;211;6230;0;2;728;4955;4;776;361;10;3;513;3415;4;571;542;13;4;329;2201;5;343;200;5;5;11;158;26;3;5;445;693;12;6;0;6;23;3;6;401;626;10;7;856;5974;4;913;491;11;8;860;5901;4;909;492;11;9;466;3140;4;515;556;9
05.02.19;14:20:00;1;456;6189;0;2;765;4895;4;812;364;10;3;536;3372;4;595;536;14;4;348;2173;5;363;201;5;5;14;157;26;5;8;444;692;12;6;0;6;1;2;6;470;628;10;7;928;5903;4;938;493;11;8;890;5829;4;942;490;11;9;485;3102;4;534;553;9
05.02.19;14:15:00;1;500;6169;0;2;744;4831;4;793;366;10;3;523;3328;4;580;538;14;4;340;2144;5;354;201;5;5;11;157;26;3;8;446;697;12;6;0;6;8;2;7;460;628;10;7;866;5825;4;906;494;11;8;867;5755;4;910;498;11;9;473;3061;4;515;559;9
05.02.19;14:10:00;1;208;6125;0;2;746;4769;4;792;365;10;3;524;3284;4;582;543;14;4;340;2116;5;354;199;5;5;9;156;26;2;5;448;696;12;6;0;6;23;2;9;515;628;10;7;846;5753;4;889;490;11;8;846;5682;4;893;494;11;9;454;3021;4;506;549;9
05.02.19;14:05:00;1;787;6107;0;2;781;4707;4;828;359;10;3;546;3240;4;603;538;14;4;357;2087;5;372;199;5;5;20;155;1;6;6;440;682;12;6;0;6;8;2;5;421;629;10;7;890;5682;4;945;496;11;8;895;5611;4;946;496;11;9;482;2984;4;530;554;9
05.02.19;14:00:00;1;267;6062;0;2;743;4642;4;790;363;10;3;521;3195;4;576;522;14;4;339;2057;5;353;199;5;5;8;154;1;3;3;448;697;12;6;0;6;23;3;7;434;628;10;7;898;5608;4;956;494;11;8;904;5537;4;960;500;11;9;489;2943;4;539;549;10
05.02.19;13:55:00;1;589;6040;0;2;748;4580;4;794;364;10;3;511;3151;4;580;538;14;4;342;2029;5;356;199;5;5;10;153;26;3;5;446;699;12;6;0;6;1;2;6;453;628;10;7;866;5534;4;917;496;11;8;871;5462;4;912;492;11;9;476;2903;4;517;549;10
05.02.19;13:50:00;1;309;5989;0;2;784;4518;4;834;365;10;3;550;3109;4;608;534;14;4;357;2001;5;372;200;5;5;9;152;1;3;6;449;704;12;6;0;6;8;2;8;451;629;10;7;929;5462;4;984;498;12;8;927;5390;4;980;502;11;9;505;2864;4;554;553;10
05.02.19;13:45:00;1;728;5963;0;2;839;4452;4;885;365;10;3;588;3063;4;648;552;14;4;382;1971;5;397;200;5;5;18;151;1;5;8;444;696;12;6;0;6;23;2;7;508;631;10;7;1014;5384;4;1071;502;12;8;1014;5313;4;1068;498;11;9;549;2821;4;597;554;10
05.02.19;13:40:00;1;521;5911;0;2;869;4382;4;917;367;11;3;612;3014;4;674;548;14;4;395;1939;5;412;202;5;5;10;150;1;3;6;451;713;13;6;0;6;8;2;7;487;631;10;7;1039;5300;4;1097;500;12;8;1036;5227;4;1095;501;11;9;564;2775;4;617;555;10
05.02.19;13:35:00;1;273;5861;0;2;902;4310;4;956;369;11;3;639;2963;4;701;552;14;4;415;1906;5;432;199;5;5;11;149;1;4;5;450;705;13;6;0;6;23;2;7;563;633;10;7;1131;5213;4;1190;494;12;8;1127;5141;4;1194;504;11;9;611;2728;4;670;551;10